N3WKE Weather Reports


Display with metric or nautical units.
time (UTC)temp
F
wind
direction
speed
MPH
gust
MPH
rain 1hr
in
rain 24hr
in
rain mn
in
humidity
%
barometer
mb
20260510083036 54 78 0.0 0.0 0.00 0.00 0.00 89 1010.0
20260510081624 54 78 0.0 0.0 0.00 0.00 0.00 89 1009.7
20260510080031 54 78 0.0 0.0 0.00 0.00 0.00 89 1009.4
20260510074558 54 78 0.0 0.0 0.00 0.00 0.00 89 1009.3
20260510073029 55 78 0.0 0.0 0.00 0.00 0.00 88 1009.1
20260510071601 55 78 0.0 0.0 0.00 0.00 0.00 88 1009.0
20260510070031 55 78 0.0 0.0 0.00 0.00 0.00 87 1009.1
20260510064600 56 78 0.0 0.0 0.00 0.00 0.00 87 1008.8
20260510063048 56 78 0.0 0.0 0.00 0.00 0.00 86 1008.7
20260510061554 57 78 0.0 0.0 0.00 0.00 0.00 85 1008.8
20260510060049 57 78 0.0 0.0 0.00 0.00 0.00 85 1008.8
20260510054554 58 78 0.0 0.0 0.00 0.00 0.00 84 1009.0
20260510053043 58 78 0.0 0.0 0.00 0.00 0.00 84 1009.0
20260510051601 59 78 0.0 0.0 0.00 0.00 0.00 83 1009.1
20260510050043 59 79 0.0 0.0 0.00 0.00 0.00 82 1009.0
20260510044524 60 79 0.0 0.0 0.00 0.00 0.00 82 1009.1
20260510043052 60 79 0.0 0.0 0.00 0.00 0.00 82 1009.1
20260510041556 60 78 0.0 0.0 0.00 0.00 0.00 82 1009.1
20260510040046 60 84 0.0 0.0 0.00 0.00 0.00 81 1009.0
20260510034550 60 83 0.0 0.0 0.00 0.00 0.00 81 1009.0
20260510033055 60 84 0.0 0.0 0.00 0.00 0.00 81 1009.0
20260510031548 61 84 0.0 0.0 0.00 0.00 0.00 81 1008.9
20260510030044 61 86 0.0 0.0 0.00 0.00 0.00 81 1008.8
20260510024504 61 86 0.0 0.0 0.00 0.00 0.00 81 1008.7
20260510023034 62 86 0.0 0.0 0.00 0.00 0.00 80 1008.7
20260510021505 62 86 0.0 0.0 0.00 0.00 0.00 80 1008.8
20260510020034 62 86 0.0 0.0 0.00 0.00 0.00 79 1008.8
20260510014503 63 86 0.0 0.0 0.00 0.00 0.00 78 1008.6
20260510013034 63 109 0.0 0.0 0.00 0.00 0.00 78 1008.5
20260510011558 64 108 0.0 0.0 0.00 0.00 0.00 77 1008.2
20260510010035 64 158 0.0 0.0 0.00 0.00 0.00 75 1008.1
20260510004501 65 158 0.0 0.0 0.00 0.00 0.00 73 1007.9
20260510003029 65 158 0.0 0.0 0.00 0.00 0.00 72 1007.7
20260510001559 66 158 0.0 0.0 0.00 0.00 0.00 71 1007.7
20260510000044 67 158 0.0 0.0 0.00 0.00 0.00 71 1007.7
20260509234504 67 158 0.0 0.0 0.00 0.00 0.00 70 1007.5
20260509233038 68 158 0.0 0.0 0.00 0.00 0.00 69 1007.4
20260509231503 68 158 0.0 0.0 0.00 0.00 0.00 68 1007.2
20260509230034 69 116 0.0 1.0 0.00 0.00 0.00 67 1007.1
20260509224600 70 160 0.0 0.0 0.00 0.00 0.00 66 1007.1
20260509223030 70 160 0.0 0.0 0.00 0.00 0.00 65 1007.3
20260509221600 70 161 0.0 0.0 0.00 0.00 0.00 65 1007.2
20260509220030 69 166 0.0 0.0 0.00 0.00 0.00 66 1007.2
20260509214502 68 159 0.0 0.0 0.00 0.00 0.00 68 1007.3
20260509213031 68 157 0.0 0.0 0.00 0.00 0.00 68 1007.5
20260509211557 68 157 0.0 0.0 0.00 0.00 0.00 68 1007.5
20260509210034 68 159 0.0 0.0 0.00 0.00 0.00 69 1007.3
20260509204557 69 155 0.0 0.0 0.00 0.00 0.00 66 1007.2
20260509203043 70 155 0.0 0.0 0.00 0.00 0.00 66 1007.0
20260509201601 69 163 0.0 0.0 0.00 0.00 0.00 64 1007.3
20260509200054 69 155 0.0 0.0 0.00 0.00 0.00 66 1007.5
20260509194551 69 52 0.0 2.0 0.00 0.00 0.00 65 1007.8
20260509193059 67 157 0.0 0.0 0.00 0.00 0.00 67 1007.9
20260509191550 67 148 0.0 0.0 0.00 0.00 0.00 66 1008.1
20260509190041 68 153 0.0 3.0 0.00 0.00 0.00 65 1008.4
20260509184559 67 30 0.0 1.0 0.00 0.00 0.00 63 1008.5
20260509183038 67 351 0.0 0.0 0.00 0.00 0.00 65 1008.5
20260509181549 67 46 0.0 0.0 0.00 0.00 0.00 63 1008.9
20260509180041 67 355 0.0 1.0 0.00 0.00 0.00 64 1009.2
20260509174555 67 283 0.0 0.0 0.00 0.00 0.00 63 1009.0
20260509173044 67 272 0.0 1.0 0.00 0.00 0.00 64 1009.0
20260509171603 67 249 0.0 0.0 0.00 0.00 0.00 64 1009.1
20260509164549 67 244 0.0 9.0 0.00 0.00 0.00 63 1009.1
20260509163040 68 278 0.0 1.0 0.00 0.00 0.00 62 1009.2
20260509161552 67 248 0.0 0.0 0.00 0.00 0.00 63 1009.3
20260509160038 66 261 0.0 11.0 0.00 0.00 0.00 64 1009.5
20260509154504 66 242 0.0 8.0 0.00 0.00 0.00 63 1009.6
20260509153037 65 233 0.0 0.0 0.00 0.00 0.00 64 1009.7
20260509151502 64 264 0.0 1.0 0.00 0.00 0.00 65 1010.0
20260509150033 63 236 0.0 0.0 0.00 0.00 0.00 65 1010.2
20260509144501 63 265 0.0 2.0 0.00 0.00 0.00 66 1010.5
20260509143027 63 250 0.0 1.0 0.00 0.00 0.00 65 1010.4
20260509141554 63 220 0.0 1.0 0.00 0.00 0.00 65 1010.3
20260509140026 62 245 0.0 10.0 0.00 0.00 0.00 65 1010.3
20260509134554 62 236 0.0 0.0 0.00 0.00 0.00 66 1010.3
20260509133038 62 241 0.0 8.0 0.00 0.00 0.00 66 1010.3
20260509131547 61 249 0.0 7.0 0.00 0.00 0.00 65 1010.3
20260509130042 61 234 0.0 2.0 0.00 0.00 0.00 67 1010.2
20260509124605 60 215 0.0 6.0 0.00 0.00 0.00 67 1010.3
20260509123040 60 232 0.0 4.0 0.00 0.00 0.00 68 1010.1
20260509121552 59 226 0.0 0.0 0.00 0.00 0.00 69 1010.1
20260509120044 59 227 0.0 3.0 0.00 0.00 0.00 68 1010.1
20260509114548 59 235 0.0 5.0 0.00 0.00 0.00 68 1010.0
20260509113037 59 229 0.0 0.0 0.00 0.00 0.00 66 1010.0
20260509111549 58 232 0.0 0.0 0.00 0.00 0.00 65 1009.9
20260509110026 58 234 0.0 0.0 0.00 0.00 0.00 65 1009.9
20260509104554 59 234 0.0 0.0 0.00 0.00 0.00 63 1009.7
20260509103045 59 234 0.0 0.0 0.00 0.00 0.00 61 1009.6
20260509101551 59 234 0.0 0.0 0.00 0.00 0.00 61 1009.6
20260509100052 60 235 0.0 0.0 0.00 0.00 0.00 60 1009.4
20260509094552 60 223 0.0 0.0 0.00 0.00 0.00 60 1009.4
20260509093038 60 222 0.0 1.0 0.00 0.00 0.00 59 1009.4
20260509091551 60 246 0.0 3.0 0.00 0.00 0.00 59 1009.4
20260509090042 60 234 0.0 0.0 0.00 0.00 0.00 59 1009.5
20260509084553 60 246 0.0 3.0 0.00 0.00 0.00 60 1009.8